[[{"header":{"parameterUnit":"m.s-1","parameterCategory":1,"la1":30.2991,"la2":30.254,"lo1":-89.0895,"lo2":-89.0444,"dy":0.0017,"dx":0.0017,"nx":28,"ny":28,"refTime":"2023-09-05T03:00:00:Z","depth":0,"parameterNumber":2,"parameterNumberName":"U-component_of_WINDS"},"data":[0,0,0,0,0,0,0,0,0,0,0,0,0,0,0,0,0,0,0,0,0,0,0,0,0,0,0,0,0,0,0,0,0,0,0,0,0,0,0,0,0,0,0,0,0,0,0,0,0,0,0,0,0,0,0,0,0,0,-4.0727,-4.0727,0,-4.0706,-4.0706,-4.0706,-4.0569,-4.0565,-4.0562,-4.0559,-4.054,-4.0543,-4.0545,0,0,0,0,0,0,0,0,0,0,0,0,0,-4.0654,-4.0656,-4.0727,-4.0727,-4.0727,-4.0706,-4.0706,-4.0706,-4.0569,-4.0565,-4.0561,-4.0557,-4.0539,-4.0542,-4.0545,0,0,0,0,0,0,0,0,0,0,0,0,0,-4.0665,-4.0656,-4.0727,-4.0656,-4.0649,-4.0707,-4.0706,-4.0706,-4.057,-4.0565,-4.056,-4.0555,-4.0538,-4.0542,-4.0546,-4.0671,0,0,-4.0558,-4.056,0,0,0,0,0,0,0,0,-4.0664,-4.0668,-4.0667,-4.0661,-4.0654,-4.0635,-4.0673,-4.0694,-4.0571,-4.06,-4.0559,-4.0553,-4.0576,-4.0576,-4.0584,-4.067,-4.0669,-4.0558,-4.0561,-4.0562,-4.0563,0,0,0,0,0,0,0,-4.0664,-4.0668,-4.0719,-4.0667,-4.0659,-4.0627,-4.0623,-4.0677,-4.0617,-4.0597,-4.0587,-4.0587,-4.0571,-4.058,-4.0582,-4.0669,-4.0558,-4.0562,-4.0564,-4.0566,-4.0859,-4.0864,0,0,0,0,0,0,-4.0672,-4.0668,-4.072,-4.0718,-4.0647,-4.0632,-4.0628,-4.0646,-4.0616,-4.0606,-4.0591,-4.058,-4.0576,-4.0578,-4.0581,-4.0725,-4.0562,-4.0566,-4.0568,-4.0853,-4.086,-4.0866,0,0,0,0,0,0,-4.0671,-4.0678,-4.0721,-4.0691,-4.0693,-4.0639,-4.0661,-4.0648,-4.0657,-4.0611,-4.06,-4.0611,-4.0572,-4.0575,-4.065,-4.0723,-4.0568,-4.0571,-4.0847,-4.0855,-4.0863,-4.1016,0,0,0,0,0,0,-4.067,-4.0679,-4.0724,-4.0693,-4.0696,-4.0789,-4.0665,-4.0652,-4.0664,-4.0649,-4.0626,-4.0617,-4.0568,-4.0645,-4.0654,-4.0726,-4.0574,-4.084,-4.0851,-4.086,-4.1004,-4.1028,-4.1049,0,0,0,0,0,-4.0668,-4.0768,-4.0727,-4.0734,-4.0751,-4.0793,-4.0795,-4.0735,-4.067,-4.0716,-4.0687,-4.0618,-4.0714,-4.0653,-4.0662,-4.0737,-4.0835,-4.0848,-4.086,-4.0994,-4.1023,-4.1048,0,0,0,0,0,0,-4.0809,-4.0762,-4.0716,-4.0809,-4.0806,-4.077,-4.0825,-4.0768,-4.0784,-4.077,-4.0697,-4.0693,-4.0779,-4.0765,-4.0698,-4.0857,-4.0763,-4.0778,-4.0862,-4.089,-4.0912,-4.0913,-4.0578,0,0,0,0,0,-4.0852,-4.0888,-4.0846,-4.0932,-4.0933,-4.0881,-4.0896,-4.0851,-4.0845,-4.0843,-4.0819,-4.0817,-4.0847,-4.0868,-4.0893,-4.1003,-4.0996,-4.1058,-4.1081,-4.11,-4.1113,-4.1172,-4.1199,-4.0906,-4.0906,-4.0906,0,0,-4.0939,-4.0918,-4.0945,-4.096,-4.0952,-4.0994,-4.088,-4.0928,-4.0958,-4.0851,-4.0919,-4.0903,-4.0896,-4.0989,-4.1028,-4.098,-4.1193,-4.1115,-4.1131,-4.1133,-4.1187,-4.1215,-4.1239,-4.0914,-4.0913,-4.0911,0,0,-4.1118,-4.1106,-4.1177,-4.1172,-4.1162,-4.1127,-4.1145,-4.1118,-4.1102,-4.117,-4.1091,-4.1127,-4.1179,-4.1178,-4.1185,-4.1369,-4.1307,-4.138,-4.1496,-4.1554,-4.1578,-4.1598,-4.1664,-4.1688,-4.1393,-4.1393,-4.1394,0,-4.1228,-4.1285,-4.1221,-4.1274,-4.1284,-4.119,-4.1262,-4.1261,-4.1261,-4.127,-4.1217,-4.1282,-4.1271,-4.1363,-4.1408,-4.1417,-4.1435,-4.138,-4.1579,-4.1599,-4.1617,-4.1679,-4.1704,-4.1402,-4.1401,-4.14,-4.1399,0,-4.1421,-4.1463,-4.1522,-4.1523,-4.154,-4.1603,-4.155,-4.1575,-4.153,-4.1502,-4.1574,-4.1558,-4.1578,-4.1597,-4.1553,-4.1685,-4.1655,-4.1592,-4.1495,-4.1654,-4.1712,-4.1735,-4.1415,-4.1412,-4.1409,-4.1407,0,0,-4.1685,-4.1653,-4.1675,-4.1676,-4.166,-4.1692,-4.1753,-4.1772,-4.1796,-4.18,-4.1849,-4.1898,-4.184,-4.1848,-4.1804,-4.1856,-4.2004,-4.1786,-4.1784,-4.1826,-4.2148,-4.2195,-4.2224,-4.1964,-4.1968,-4.1971,-4.2149,0,-4.1857,-4.1956,-4.1902,-4.2009,-4.2048,-4.1962,-4.2015,-4.2012,-4.1988,-4.2019,-4.1993,-4.2029,-4.195,-4.1954,-4.2001,-4.1976,-4.2067,-4.1962,-4.201,-4.2012,-4.2012,-4.2253,-4.2302,-4.247,-4.2171,-4.2175,-4.2177,0,-4.2069,-4.2083,-4.2194,-4.2173,-4.2188,-4.2236,-4.2251,-4.2282,-4.2278,-4.2258,-4.2269,-4.2213,-4.2273,-4.218,-4.2263,-4.2193,-4.221,-4.2201,-4.2206,-4.2207,-4.2103,-4.226,-4.2522,-4.2547,-4.2212,-4.2209,-4.2207,0,-4.2251,-4.2297,-4.237,-4.2373,-4.2351,-4.2387,-4.238,-4.2371,-4.2388,-4.2403,-4.2413,-4.2435,-4.2447,-4.2466,-4.242,-4.2356,-4.2509,-4.2412,-4.2495,-4.2496,-4.2528,-4.2527,-4.2797,-4.2543,-4.2542,-4.2542,-4.2541,0,-4.2447,-4.2519,-4.2451,-4.2496,-4.2575,-4.2514,-4.2594,-4.2577,-4.2572,-4.2613,-4.2541,-4.2582,-4.2518,-4.2554,-4.2518,-4.2593,-4.2599,-4.2585,-4.2574,-4.259,-4.2592,-4.2599,-4.2586,-4.2548,-4.2547,-4.2546,-4.2544,0,-4.2661,-4.2619,-4.2693,-4.2667,-4.2662,-4.2721,-4.2699,-4.2741,-4.2714,-4.2768,-4.2777,-4.2735,-4.2773,-4.273,-4.2764,-4.2741,-4.2842,-4.2814,-4.2842,-4.2834,-4.2919,-4.2912,-4.3201,-4.3237,-4.2961,-4.2964,-4.2966,0,-4.2788,-4.2841,-4.2822,-4.2844,-4.2841,-4.2878,-4.2895,-4.2839,-4.286,-4.2862,-4.2904,-4.2937,-4.2959,-4.3025,-4.2998,-4.3026,-4.2998,-4.3098,-4.3001,-4.3017,-4.2999,-4.2996,-4.3001,-4.3117,-4.312,-4.3123,-4.3125,0,-4.3018,-4.2996,-4.3022,-4.3043,-4.3065,-4.3079,-4.3087,-4.311,-4.3052,-4.308,-4.3118,-4.3136,-4.3173,-4.3206,-4.3227,-4.3221,-4.3164,-4.3156,-4.3177,-4.3193,-4.3206,-4.32,-4.2895,-4.3149,-4.3147,-4.3145,-4.3143,-4.3143,-4.3192,-4.3236,-4.323,-4.3263,-4.3263,-4.3274,-4.3312,-4.3291,-4.3321,-4.3346,-4.3312,-4.336,-4.3359,-4.338,-4.3382,-4.342,-4.3377,-4.3407,-4.3414,-4.3422,-4.3435,-4.3203,-4.3423,-4.3423,-4.3422,-4.3421,-4.3421,0,-4.3418,-4.341,-4.3442,-4.3456,-4.3483,-4.3428,-4.3436,-4.3462,-4.3505,-4.3508,-4.3533,-4.3578,-4.3612,-4.359,-4.3618,-4.3653,-4.3628,-4.3663,-4.3659,-4.3659,-4.3471,-4.345,-4.3683,-4.3683,-4.3683,-4.3682,-4.3682,-4.3682,-4.3538,-4.361,-4.3588,-4.366,-4.3653,-4.3699,-4.3708,-4.3718,-4.372,-4.3774,-4.3802,-4.3787,-4.3781,-4.381,-4.3839,-4.3831,-4.3845,-4.3889,-4.3873,-4.3697,-4.3672,-4.3647,-4.3627,-4.3893,-4.3893,-4.4057,-4.4058,-4.4059]},{"header":{"parameterUnit":"m.s-1","parameterCategory":1,"la1":30.2991,"la2":30.254,"lo1":-89.0895,"lo2":-89.0444,"dy":0.0017,"dx":0.0017,"nx":28,"ny":28,"refTime":"2023-09-05T03:00:00:Z","depth":0,"parameterNumber":3,"parameterNumberName":"V-component_of_WINDS"},"data":[0,0,0,0,0,0,0,0,0,0,0,0,0,0,0,0,0,0,0,0,0,0,0,0,0,0,0,0,0,0,0,0,0,0,0,0,0,0,0,0,0,0,0,0,0,0,0,0,0,0,0,0,0,0,0,0,0,0,3.0549,3.0549,0,3.0536,3.0536,3.0536,3.0579,3.058,3.0582,3.0583,3.0563,3.0561,3.0559,0,0,0,0,0,0,0,0,0,0,0,0,0,3.0604,3.0603,3.0549,3.0549,3.0549,3.0536,3.0536,3.0536,3.0579,3.058,3.0582,3.0583,3.0563,3.0561,3.0559,0,0,0,0,0,0,0,0,0,0,0,0,0,3.0584,3.0602,3.0549,3.0569,3.057,3.0536,3.0536,3.0536,3.0578,3.058,3.0582,3.0584,3.0564,3.0561,3.0559,3.0503,0,0,3.0551,3.0549,0,0,0,0,0,0,0,0,3.0585,3.0582,3.0566,3.0567,3.0569,3.0561,3.0548,3.0525,3.0578,3.0575,3.0583,3.0585,3.056,3.0558,3.0551,3.0502,3.0501,3.055,3.0549,3.0548,3.0547,0,0,0,0,0,0,0,3.0587,3.0583,3.0544,3.0565,3.0567,3.0576,3.0576,3.0544,3.0556,3.0575,3.0579,3.0577,3.0561,3.0553,3.0551,3.0501,3.055,3.0548,3.0546,3.0545,3.0406,3.0404,0,0,0,0,0,0,3.0586,3.0584,3.0544,3.0543,3.0583,3.0574,3.0573,3.0562,3.0557,3.0558,3.0575,3.0579,3.0557,3.0554,3.055,3.0484,3.0548,3.0545,3.0544,3.0408,3.0405,3.0403,0,0,0,0,0,0,3.0587,3.0583,3.0545,3.0565,3.056,3.0571,3.0558,3.056,3.0553,3.0557,3.0559,3.0565,3.0558,3.0554,3.0515,3.0484,3.0544,3.0542,3.0411,3.0407,3.0404,3.0352,0,0,0,0,0,0,3.0589,3.0583,3.0563,3.0564,3.0559,3.0511,3.0556,3.0559,3.0549,3.0554,3.0548,3.0549,3.056,3.0519,3.0512,3.0482,3.054,3.0413,3.0409,3.0405,3.0357,3.0348,3.034,0,0,0,0,0,3.0591,3.0547,3.0561,3.0556,3.0535,3.0509,3.0506,3.0522,3.0546,3.0525,3.0529,3.0549,3.049,3.0514,3.0508,3.0476,3.0415,3.041,3.0406,3.036,3.035,3.034,0,0,0,0,0,0,3.0538,3.0547,3.0563,3.0519,3.0513,3.0516,3.049,3.0509,3.0494,3.0499,3.0517,3.0515,3.0473,3.0471,3.0498,3.0422,3.0456,3.045,3.0424,3.0414,3.0406,3.0406,3.0537,0,0,0,0,0,3.0522,3.0503,3.0511,3.0471,3.0467,3.048,3.0469,3.0482,3.0475,3.0472,3.0472,3.0464,3.0443,3.0429,3.041,3.0358,3.0356,3.0333,3.0324,3.0317,3.0311,3.0283,3.0272,3.0387,3.0388,3.0388,0,0,3.0487,3.049,3.0476,3.046,3.0457,3.0435,3.0477,3.0451,3.0434,3.0468,3.0431,3.0431,3.0423,3.0377,3.0357,3.0374,3.0279,3.0311,3.0306,3.0303,3.0277,3.0266,3.0256,3.0384,3.0385,3.0385,0,0,3.0412,3.0413,3.038,3.0377,3.0373,3.0382,3.0374,3.0375,3.0377,3.0342,3.0367,3.0346,3.0311,3.0304,3.0295,3.0221,3.0238,3.0214,3.0169,3.0141,3.0132,3.0124,3.0096,3.0086,3.0208,3.0208,3.0208,0,3.0368,3.0338,3.036,3.0333,3.0325,3.0358,3.0324,3.0319,3.0308,3.0301,3.0322,3.0278,3.0275,3.0228,3.021,3.0203,3.0193,3.0213,3.0132,3.0125,3.0117,3.0091,3.008,3.0205,3.0205,3.0205,3.0206,0,3.0284,3.0262,3.0236,3.0228,3.0217,3.0186,3.0202,3.0188,3.0203,3.0209,3.0172,3.017,3.0152,3.0142,3.0154,3.0097,3.0107,3.013,3.0164,3.0103,3.0078,3.0068,3.02,3.0201,3.0202,3.0203,0,0,3.0172,3.0179,3.0168,3.0166,3.0165,3.0148,3.0119,3.0104,3.0091,3.0083,3.0058,3.0029,3.005,3.0041,3.0053,3.003,2.9969,3.0055,3.0055,3.0038,2.9904,2.9886,2.9874,2.9983,2.9981,2.998,2.9904,0,3.0097,3.005,3.0069,3.0019,2.9999,3.0032,3.0006,3.0002,3.0008,2.999,2.9996,2.9974,3.0005,3.0,2.9978,2.9981,2.9942,2.9987,2.9957,2.9956,2.9956,2.9861,2.9841,2.977,2.9895,2.9893,2.9892,0,3.0002,2.9994,2.9942,2.9947,2.9939,2.9916,2.9905,2.9888,2.9884,2.989,2.9881,2.99,2.987,2.9907,2.9865,2.9895,2.9885,2.9885,2.9882,2.9878,2.9918,2.9852,2.9748,2.9736,2.9877,2.9879,2.988,0,2.9924,2.99,2.9866,2.9863,2.9868,2.9851,2.9851,2.985,2.984,2.9829,2.9823,2.9808,2.9799,2.9786,2.98,2.9826,2.9756,2.9794,2.9758,2.9757,2.9739,2.9739,2.9629,2.9735,2.9736,2.9736,2.9736,0,2.9837,2.9804,2.9831,2.981,2.9774,2.9797,2.976,2.9764,2.9763,2.9742,2.9769,2.9748,2.9769,2.9749,2.976,2.9723,2.9719,2.9721,2.9724,2.9718,2.9717,2.9708,2.9713,2.9733,2.9734,2.9734,2.9735,0,2.9742,2.9759,2.9725,2.9734,2.9735,2.9708,2.9714,2.9694,2.9704,2.9677,2.9671,2.9685,2.9664,2.9677,2.9655,2.9662,2.9613,2.9624,2.9615,2.9617,2.9579,2.9582,2.9458,2.9443,2.9561,2.956,2.9559,0,2.9684,2.966,2.9667,2.9657,2.9657,2.9639,2.963,2.9652,2.9641,2.9636,2.9616,2.9599,2.9585,2.955,2.9556,2.9539,2.9548,2.9506,2.9545,2.954,2.9545,2.9546,2.9543,2.9497,2.9496,2.9494,2.9494,0,2.9579,2.959,2.9577,2.9567,2.9557,2.9549,2.9544,2.9533,2.9556,2.9542,2.9523,2.9513,2.9492,2.9473,2.946,2.9458,2.9478,2.9482,2.9472,2.9464,2.9459,2.946,2.9591,2.9484,2.9485,2.9485,2.9486,2.9486,2.95,2.948,2.9483,2.9467,2.9467,2.9462,2.9444,2.9452,2.9437,2.9424,2.9438,2.9414,2.9411,2.9396,2.9392,2.9373,2.9389,2.9376,2.9372,2.9368,2.9362,2.9465,2.937,2.9371,2.9371,2.9371,2.9372,0,2.9395,2.9399,2.9385,2.9379,2.9367,2.9392,2.9388,2.9375,2.9354,2.9352,2.9339,2.9317,2.9299,2.9306,2.929,2.9273,2.9282,2.9268,2.9268,2.9267,2.9348,2.9358,2.9261,2.9261,2.9261,2.9261,2.9261,2.9261,2.9339,2.9306,2.9318,2.9285,2.9289,2.9268,2.9263,2.9258,2.9257,2.9231,2.9218,2.9224,2.9224,2.9209,2.9194,2.9196,2.9188,2.917,2.9175,2.925,2.9261,2.9271,2.928,2.9168,2.9168,2.9095,2.9094,2.9093]}]]